Regional Weather Roundup
Issued by NWS Midland/Odessa, TX

Skip options and go directly to product.
Home | Oldest Version | Previous Version | Current Version | All | Text Only | Save Text | Print | Product List | Glossary On

Skip product version selection by date and time.   
554
ASUS44 KMAF 212010
RWRMAF
MIDLAND AREA WEATHER ROUNDUP
NATIONAL WEATHER SERVICE MIDLAND TX
300 PM CDT SUN SEP 21 2014

...IN SOUTHWEST TEXAS AND SOUTHEAST NEW MEXICO...

CITY           SKY/WX    TMP DP  RH WIND       PRES   REMARKS
ALPINE         CLOUDY    78  64  61 E9        30.21F
ANDREWS        CLOUDY    70  67  89 E10       30.17F
ARTESIA        NOT AVBL
BIG SPRING     CLOUDY    74  71  91 N6        30.16F
CARLSBAD       LGT RAIN  75  32  20 NE6       30.12F
DRYDEN           N/A     90  68  48 E14       30.03F
FORT STOCKTON  PTSUNNY   81  66  60 SE12      30.09F
GUAD PASS      CLOUDY    72  64  76 NE16        N/A
HOBBS          PTSUNNY   70  68  94 E17       30.19F
MARFA          PTSUNNY   73  64  73 SE14      30.20F
MIDLAND AIRPK  HVY RAIN  70  69  96 E9        30.15F
MIDLAND INTL   CLOUDY    73  67  81 NE16      30.13F
ODESSA         CLOUDY    73  67  81 E23       30.13F
PECOS          CLOUDY    81  68  63 E14       30.07F
PRESIDIO       FAIR      89  65  44 SE12      30.02F
SEMINOLE       RAIN      68  67  96 CALM      30.20F
SNYDER         PTSUNNY   78  68  71 SE8       30.13F
WINK           CLOUDY    80  69  69 SE10      30.09F
$$
...OTHER STATIONS IN TEXAS...

CITY           SKY/WX    TMP DP  RH WIND       PRES   REMARKS
ABILENE        MOSUNNY   86  62  44 SE10      30.09F
AMARILLO       PTSUNNY   79  63  57 NE14      30.20F
AUSTIN         MOSUNNY   90  68  48 NE10      30.01F
BROWNSVILLE    CLOUDY    84  76  76 E8        29.93F
CORPUS CHRISTI PTSUNNY   88  77  69 E15G23    29.95F HX 100
DALLAS FTW     MOSUNNY   92  61  35 SE5       30.04F
DEL RIO        MOSUNNY   90  69  50 E8        29.98F
EL PASO        PTSUNNY   85  62  46 VRB7      30.10F
HOUSTON INT    MOSUNNY   90  70  51 E9        30.00F
LUBBOCK        CLOUDY    70  66  87 S16       30.19F
SAN ANGELO     CLOUDY    84  67  56 E10       30.08F
SAN ANTONIO    MOSUNNY   92  67  43 E12G20    30.01F
WACO           MOSUNNY   91  64  40 VRB6      30.03F
WICHITA FALLS  NOT AVBL
$$
...OTHER LOCATIONS IN NEW MEXICO...

CITY           SKY/WX    TMP DP  RH WIND       PRES   REMARKS
ALAMAGORDO     PTSUNNY   81  63  54 SE5       30.15F
ALBUQUERQUE    PTSUNNY   80  52  37 E18       30.24F
CANNON AFB     PTSUNNY   79  58  47 E15       30.23F
CLOVIS           N/A     79  61  53 E16G23    30.25F
HOLLOMAN AFB   PTSUNNY   82  60  47 W2        30.12F
ROSWELL        CLOUDY    70  67  90 N17       30.18F
RUIDOSO        LGT RAIN  59  59 100 E8        30.37F
SANTA FE       MOSUNNY   80  43  26 SE21G35   30.30F
TRUTH OR CONSE MOSUNNY   82  60  47 VRB5      30.18F
TUCUMCARI      MOSUNNY   81  60  48 E17G23    30.23F
$$

USA.gov is the U.S. government's official web portal to all federal, state and local government web resources and services.